QPF
0.00 0.00 0.00 0.00 0.00 0.00 0.00 0.00 0.00 0.00 0.00 0.00 0.00 0.00 0.00 0.00 0.00 0.00 0.01 0.00 0.00 0.00 0.00 0.00 0.00 0.00 0.00 0.00 0.00 0.00 0.00 0.00 0.00 0.00 0.00 0.00 0.00 0.00 0.00 0.00 0.00 0.00 0.01 0.01 0.01 0.00 0.00 0.01 0.01
0.00 0.00 0.00 0.00 0.00 0.00 0.00 0.00 0.00 0.00 0.00 0.00 0.00 0.00 0.00 0.00 0.00 0.00 0.01 0.01 0.00 0.00 0.00 0.00 0.00 0.00 0.00 0.00 0.00 0.00 0.00 0.00 0.00 0.00 0.00 0.01 0.01 0.00 0.00 0.00 0.00 0.00 0.00 0.00 0.01 0.00 0.00 0.00 0.00
0.00 0.00 0.00 0.00 0.00 0.00 0.00 0.00 0.00 0.00 0.00 0.00 0.00 0.00 0.00 0.00 0.00 0.00 0.01 0.00 0.00 0.00 0.00 0.00 0.00 0.00 0.00 0.00 0.00 0.00 0.00 0.00 0.00 0.00 0.01 0.01 0.01 0.01 0.00 0.00 0.00 0.00 0.00 0.00 0.00 0.00 0.00 0.00 0.00
0.00 0.00 0.00 0.00 0.00 0.00 0.00 0.00 0.00 0.00 0.00 0.00 0.00 0.00 0.00 0.00 0.00 0.00 0.01 0.00 0.00 0.00 0.00 0.00 0.00 0.00 0.00 0.00 0.00 0.01 0.00 0.00 0.00 0.01 0.01 0.01 0.01 0.01 0.01 0.00 0.00 0.00 0.00 0.00 0.00 0.00 0.00 0.00 0.00
0.00 0.00 0.00 0.00 0.00 0.00 0.00 0.00 0.00 0.00 0.00 0.00 0.00 0.00 0.00 0.00 0.00 0.00 0.00 0.00 0.00 0.00 0.00 0.00 0.00 0.00 0.01 0.00 0.01 0.01 0.00 0.01 0.01 0.00 0.00 0.01 0.01 0.01 0.00 0.00 0.00 0.00 0.00 0.00 0.00 0.00 0.00 0.00 0.00
0.00 0.00 0.00 0.00 0.00 0.00 0.00 0.00 0.00 0.00 0.00 0.00 0.00 0.00 0.00 0.00 0.00 0.00 0.00 0.00 0.00 0.00 0.00 0.00 0.01 0.01 0.02 0.01 0.02 0.01 0.00 0.00 0.01 0.00 0.00 0.00 0.00 0.00 0.00 0.00 0.00 0.00 0.00 0.00 0.00 0.00 0.00 0.00 0.00
0.00 0.00 0.00 0.00 0.00 0.00 0.00 0.00 0.00 0.00 0.00 0.00 0.00 0.00 0.00 0.00 0.00 0.00 0.00 0.00 0.00 0.00 0.00 0.00 0.00 0.00 0.01 0.01 0.01 0.01 0.01 0.00 0.00 0.00 0.00 0.00 0.00 0.00 0.00 0.00 0.00 0.00 0.00 0.00 0.00 0.00 0.00 0.00 0.00
0.00 0.00 0.00 0.00 0.00 0.00 0.00 0.00 0.00 0.00 0.00 0.00 0.00 0.00 0.00 0.00 0.00 0.00 0.00 0.00 0.00 0.00 0.00 0.00 0.00 0.00 0.00 0.01 0.01 0.01 0.01 0.01 0.00 0.00 0.00 0.00 0.00 0.00 0.00 0.00 0.00 0.00 0.00 0.00 0.00 0.00 0.00 0.00 0.00
0.00 0.00 0.00 0.00 0.00 0.00 0.00 0.00 0.00 0.00 0.00 0.00 0.00 0.00 0.00 0.00 0.00 0.00 0.00 0.00 0.00 0.00 0.00 0.00 0.00 0.00 0.00 0.00 0.00 0.00 0.00 0.00 0.00 0.00 0.00 0.00 0.00 0.00 0.00 0.00 0.00 0.00 0.00 0.00 0.00 0.00 0.00 0.00 0.00
0.00 0.00 0.00 0.00 0.00 0.00 0.00 0.00 0.00 0.00 0.00 0.00 0.00 0.00 0.00 0.00 0.00 0.00 0.00 0.00 0.00 0.00 0.00 0.00 0.00 0.00 0.00 0.00 0.00 0.00 0.00 0.00 0.00 0.00 0.00 0.01 0.01 0.00 0.00 0.00 0.00 0.00 0.00 0.00 0.00 0.00 0.00 0.00 0.00
0.00 0.00 0.00 0.00 0.00 0.00 0.00 0.00 0.00 0.00 0.00 0.00 0.00 0.00 0.00 0.00 0.00 0.00 0.00 0.00 0.00 0.00 0.00 0.00 0.00 0.00 0.00 0.00 0.00 0.00 0.00 0.00 0.00 0.00 0.02 0.04 0.01 0.00 0.00 0.00 0.00 0.00 0.00 0.00 0.00 0.00 0.00 0.00 0.00
0.00 0.00 0.00 0.00 0.00 0.00 0.00 0.00 0.00 0.00 0.00 0.00 0.00 0.00 0.00 0.00 0.00 0.00 0.00 0.00 0.00 0.00 0.00 0.00 0.00 0.00 0.00 0.00 0.00 0.00 0.00 0.00 0.01 0.03 0.03 0.02 0.01 0.00 0.00 0.00 0.00 0.00 0.00 0.00 0.00 0.00 0.00 0.00 0.00
0.00 0.00 0.00 0.00 0.00 0.00 0.00 0.00 0.00 0.00 0.00 0.00 0.00 0.00 0.00 0.00 0.00 0.00 0.00 0.00 0.00 0.00 0.00 0.00 0.00 0.00 0.00 0.00 0.00 0.00 0.00 0.01 0.01 0.02 0.02 0.01 0.00 0.00 0.00 0.00 0.00 0.00 0.00 0.00 0.00 0.00 0.00 0.00 0.00
0.00 0.00 0.00 0.00 0.00 0.00 0.00 0.00 0.00 0.00 0.00 0.00 0.00 0.00 0.00 0.00 0.00 0.00 0.00 0.00 0.00 0.00 0.00 0.00 0.00 0.00 0.00 0.00 0.00 0.00 0.00 0.00 0.00 0.01 0.00 0.00 0.00 0.00 0.00 0.00 0.00 0.00 0.00 0.00 0.00 0.00 0.00 0.00 0.00
0.00 0.00 0.00 0.00 0.00 0.00 0.00 0.00 0.00 0.00 0.00 0.00 0.00 0.00 0.00 0.00 0.00 0.00 0.00 0.00 0.00 0.00 0.00 0.00 0.00 0.00 0.00 0.00 0.00 0.00 0.00 0.00 0.00 0.00 0.00 0.00 0.00 0.00 0.00 0.00 0.00 0.00 0.00 0.00 0.00 0.00 0.00 0.00 0.00
0.00 0.00 0.00 0.00 0.00 0.00 0.00 0.00 0.00 0.00 0.00 0.00 0.00 0.00 0.00 0.00 0.00 0.00 0.00 0.00 0.00 0.00 0.00 0.00 0.00 0.00 0.00 0.00 0.00 0.00 0.00 0.00 0.00 0.00 0.00 0.00 0.00 0.00 0.00 0.00 0.00 0.00 0.00 0.00 0.00 0.00 0.00 0.00 0.00
0.00 0.00 0.00 0.00 0.00 0.00 0.00 0.00 0.00 0.00 0.00 0.00 0.00 0.00 0.00 0.00 0.00 0.00 0.00 0.00 0.00 0.00 0.00 0.00 0.00 0.00 0.00 0.00 0.00 0.00 0.00 0.00 0.00 0.00 0.00 0.00 0.00 0.00 0.00 0.00 0.00 0.00 0.00 0.00 0.00 0.00 0.00 0.00 0.00
0.00 0.00 0.00 0.00 0.00 0.00 0.00 0.00 0.00 0.00 0.00 0.00 0.00 0.00 0.00 0.00 0.00 0.00 0.00 0.00 0.00 0.00 0.00 0.00 0.00 0.00 0.00 0.00 0.00 0.00 0.00 0.00 0.00 0.00 0.00 0.00 0.00 0.00 0.00 0.00 0.00 0.00 0.00 0.00 0.00 0.00 0.00 0.00 0.00
0.00 0.00 0.00 0.00 0.00 0.00 0.00 0.00 0.00 0.00 0.00 0.00 0.00 0.00 0.00 0.00 0.00 0.00 0.00 0.00 0.00 0.00 0.00 0.00 0.00 0.00 0.00 0.00 0.00 0.00 0.00 0.00 0.00 0.00 0.00 0.00 0.00 0.00 0.00 0.00 0.00 0.00 0.00 0.00 0.00 0.00 0.00 0.00 0.00
0.00 0.00 0.00 0.00 0.00 0.00 0.00 0.00 0.00 0.00 0.00 0.00 0.00 0.00 0.00 0.00 0.00 0.00 0.00 0.00 0.00 0.00 0.00 0.00 0.00 0.00 0.01 0.01 0.00 0.00 0.00 0.00 0.00 0.00 0.00 0.00 0.00 0.00 0.00 0.00 0.00 0.00 0.00 0.00 0.00 0.00 0.00 0.00 0.00
0.00 0.00 0.00 0.00 0.00 0.00 0.00 0.00 0.00 0.00 0.00 0.00 0.00 0.00 0.00 0.00 0.00 0.00 0.00 0.00 0.00 0.00 0.00 0.00 0.01 0.01 0.01 0.01 0.00 0.00 0.00 0.00 0.00 0.00 0.00 0.00 0.00 0.00 0.00 0.00 0.00 0.00 0.00 0.00 0.00 0.00 0.00 0.00 0.00
0.00 0.00 0.00 0.00 0.00 0.00 0.00 0.00 0.00 0.00 0.00 0.00 0.00 0.00 0.00 0.00 0.00 0.00 0.00 0.00 0.00 0.00 0.00 0.01 0.02 0.03 0.04 0.03 0.02 0.00 0.00 0.00 0.00 0.00 0.00 0.00 0.00 0.00 0.00 0.00 0.00 0.00 0.00 0.00 0.00 0.00 0.00 0.00 0.00
0.00 0.00 0.00 0.00 0.00 0.00 0.00 0.00 0.00 0.00 0.00 0.00 0.00 0.00 0.00 0.00 0.00 0.00 0.00 0.00 0.00 0.00 0.01 0.01 0.02 0.03 0.05 0.05 0.02 0.02 0.03 0.01 0.00 0.00 0.00 0.00 0.00 0.00 0.00 0.00 0.00 0.00 0.00 0.00 0.00 0.00 0.00 0.00 0.00
0.00 0.00 0.00 0.00 0.00 0.00 0.00 0.00 0.00 0.00 0.00 0.00 0.00 0.00 0.00 0.00 0.00 0.00 0.00 0.00 0.00 0.00 0.00 0.02 0.07 0.16 0.29 0.37 0.35 0.25 0.17 0.07 0.02 0.00 0.00 0.00 0.00 0.00 0.00 0.00 0.00 0.00 0.00 0.00 0.00 0.00 0.00 0.00 0.00
0.00 0.00 0.00 0.00 0.00 0.00 0.00 0.00 0.00 0.00 0.00 0.00 0.00 0.00 0.00 0.00 0.00 0.00 0.00 0.00 0.00 0.00 0.01 0.10 0.39 0.72 0.78 0.61 0.39 0.18 0.08 0.04 0.02 0.00 0.00 0.00 0.00 0.00 0.00 0.00 0.00 0.00 0.00 0.00 0.00 0.00 0.00 0.00 0.00
0.00 0.00 0.00 0.00 0.00 0.00 0.00 0.00 0.00 0.00 0.00 0.00 0.00 0.00 0.00 0.00 0.00 0.00 0.00 0.00 0.00 0.01 0.06 0.39 0.61 0.51 0.37 0.24 0.13 0.06 0.02 0.01 0.00 0.00 0.00 0.00 0.00 0.00 0.00 0.00 0.00 0.00 0.00 0.00 0.00 0.00 0.00 0.00 0.00
0.00 0.00 0.00 0.00 0.00 0.00 0.00 0.00 0.00 0.00 0.00 0.00 0.00 0.00 0.00 0.00 0.00 0.00 0.00 0.00 0.02 0.09 0.20 0.18 0.08 0.06 0.04 0.02 0.01 0.00 0.00 0.00 0.00 0.00 0.00 0.00 0.00 0.00 0.00 0.00 0.00 0.00 0.00 0.00 0.00 0.00 0.00 0.00 0.00
0.00 0.00 0.00 0.00 0.00 0.00 0.00 0.00 0.00 0.00 0.00 0.00 0.00 0.00 0.00 0.00 0.00 0.00 0.00 0.00 0.00 0.00 0.00 0.00 0.01 0.00 0.00 0.00 0.00 0.00 0.00 0.00 0.00 0.00 0.00 0.00 0.00 0.00 0.00 0.00 0.00 0.00 0.00 0.00 0.00 0.00 0.00 0.00 0.00
0.00 0.00 0.00 0.00 0.00 0.00 0.00 0.00 0.00 0.00 0.00 0.00 0.00 0.00 0.00 0.00 0.00 0.00 0.00 0.00 0.00 0.00 0.00 0.00 0.00 0.00 0.00 0.00 0.00 0.00 0.00 0.00 0.00 0.00 0.00 0.00 0.00 0.00 0.00 0.00 0.00 0.00 0.00 0.00 0.00 0.00 0.00 0.00 0.00
0.00 0.00 0.00 0.00 0.00 0.00 0.00 0.00 0.00 0.00 0.00 0.00 0.00 0.00 0.00 0.00 0.00 0.00 0.00 0.00 0.01 0.01 0.02 0.03 0.02 0.00 0.00 0.00 0.01 0.01 0.00 0.00 0.00 0.00 0.00 0.00 0.00 0.00 0.00 0.00 0.00 0.00 0.00 0.00 0.00 0.00 0.00 0.00 0.00
MSLP
1009.82 1010.29 1010.50 1010.99 1012.51 1013.48 1012.91 1011.65 1010.34 1009.42 1008.71 1008.58 1008.74 1009.08 1009.42 1009.70 1009.95 1010.77 1010.22 1010.40 1010.29 1010.80 1011.11 1011.62 1011.97 1012.24 1012.61 1012.82 1013.07 1013.26 1013.36 1013.50 1013.67 1013.93 1014.06 1014.34 1014.60 1014.71 1014.93 1015.18 1015.33 1015.40 1015.53 1015.70 1015.93 1015.99 1016.09 1016.14 1016.17
1009.79 1010.39 1010.91 1011.77 1013.27 1013.94 1012.61 1010.90 1009.79 1008.71 1007.92 1008.28 1008.72 1009.21 1009.71 1010.40 1010.25 1010.48 1010.60 1010.76 1010.89 1011.13 1011.48 1011.91 1012.16 1012.41 1012.80 1012.96 1013.16 1013.53 1013.62 1013.72 1013.90 1014.16 1014.25 1014.54 1014.79 1014.95 1015.15 1015.42 1015.53 1015.56 1015.86 1016.09 1016.23 1016.41 1016.42 1016.36 1016.39
1009.50 1010.05 1011.44 1012.59 1013.68 1013.42 1012.18 1010.19 1008.87 1007.99 1007.56 1008.04 1008.70 1009.33 1009.87 1010.24 1010.22 1010.39 1010.65 1010.82 1011.09 1011.51 1011.83 1012.18 1012.31 1012.42 1012.93 1013.16 1013.31 1013.58 1013.75 1013.85 1014.03 1014.28 1014.48 1014.80 1015.00 1015.14 1015.45 1015.75 1015.84 1015.70 1015.96 1016.20 1016.43 1016.67 1016.74 1016.68 1016.65
1009.61 1010.78 1012.42 1012.75 1013.19 1011.94 1010.96 1009.13 1008.32 1007.93 1007.53 1007.85 1008.64 1009.70 1010.32 1010.46 1010.29 1010.02 1010.67 1010.89 1011.44 1011.76 1012.11 1012.36 1012.44 1012.60 1012.88 1013.11 1013.49 1013.72 1013.93 1014.04 1014.17 1014.40 1014.76 1015.05 1015.31 1015.45 1015.69 1015.91 1016.15 1016.07 1016.16 1016.44 1016.55 1016.81 1016.84 1016.77 1016.84
1010.08 1011.26 1012.82 1013.17 1012.57 1011.10 1009.85 1008.40 1008.06 1007.76 1007.72 1008.10 1008.37 1009.52 1010.23 1010.43 1010.50 1010.49 1010.83 1010.94 1011.17 1011.63 1012.06 1012.41 1012.65 1012.82 1013.05 1013.18 1013.50 1013.74 1014.06 1014.26 1014.42 1014.77 1015.01 1015.31 1015.57 1015.79 1016.02 1016.12 1016.30 1016.27 1016.39 1016.58 1016.71 1016.92 1017.00 1016.98 1017.01
1010.82 1011.96 1013.12 1013.07 1011.94 1010.32 1009.10 1007.83 1007.35 1007.39 1007.64 1008.34 1008.77 1009.69 1010.24 1010.53 1010.87 1010.81 1011.15 1011.25 1011.29 1011.53 1011.59 1012.00 1012.45 1012.86 1013.07 1013.41 1013.66 1013.84 1014.23 1014.57 1014.77 1015.17 1015.34 1015.45 1015.70 1015.97 1016.13 1016.29 1016.45 1016.35 1016.60 1016.54 1016.79 1016.96 1017.17 1017.25 1017.25
1010.72 1011.91 1012.67 1012.29 1011.18 1009.87 1008.27 1007.25 1006.87 1007.27 1007.79 1008.30 1008.66 1009.83 1010.35 1010.57 1010.80 1011.26 1011.54 1011.82 1011.92 1011.81 1011.90 1012.05 1011.93 1012.32 1012.89 1013.51 1013.79 1014.16 1014.45 1014.77 1015.00 1015.06 1015.47 1015.71 1015.87 1016.10 1016.27 1016.37 1016.57 1016.49 1016.77 1016.92 1016.88 1016.99 1017.37 1017.49 1017.50
1010.37 1011.30 1012.24 1011.81 1010.84 1009.37 1007.77 1007.16 1006.69 1007.01 1007.88 1008.37 1008.87 1009.57 1009.97 1010.04 1010.83 1011.57 1011.75 1012.11 1012.42 1012.63 1012.84 1012.84 1012.67 1012.94 1013.19 1013.52 1013.83 1014.22 1014.63 1015.01 1015.26 1015.27 1015.70 1015.90 1016.01 1016.11 1016.43 1016.64 1016.71 1016.65 1016.91 1017.17 1017.24 1017.36 1017.52 1017.69 1017.81
1010.18 1011.31 1011.90 1011.15 1010.49 1009.01 1007.72 1007.42 1006.98 1007.01 1007.57 1008.30 1008.95 1009.48 1009.57 1009.86 1010.81 1011.51 1011.91 1012.37 1012.67 1012.97 1013.05 1013.12 1013.09 1013.15 1013.58 1014.03 1014.24 1014.47 1014.66 1015.12 1015.41 1015.72 1016.12 1016.36 1016.61 1016.73 1016.65 1016.81 1016.87 1016.83 1017.11 1017.42 1017.57 1017.74 1017.96 1018.04 1018.08
1010.39 1011.24 1010.76 1009.97 1009.51 1008.94 1008.12 1007.65 1007.18 1007.35 1007.81 1008.40 1009.10 1009.61 1009.57 1009.97 1010.78 1011.25 1011.54 1011.96 1012.32 1012.83 1013.26 1013.42 1013.31 1013.60 1014.17 1014.09 1014.67 1014.95 1015.07 1015.36 1015.69 1016.30 1016.62 1016.90 1016.86 1017.12 1017.04 1016.95 1017.12 1017.11 1017.33 1017.63 1017.89 1018.13 1018.40 1018.68 1018.82
1010.23 1010.35 1009.80 1009.21 1008.90 1008.74 1008.34 1007.70 1007.33 1007.45 1007.71 1007.64 1008.10 1009.07 1009.87 1010.27 1010.58 1011.02 1011.36 1011.76 1012.14 1012.71 1013.18 1013.57 1013.77 1014.10 1014.31 1014.71 1015.09 1015.40 1015.61 1015.69 1016.12 1016.44 1016.79 1017.17 1017.57 1017.57 1017.69 1017.74 1017.77 1017.83 1017.83 1018.13 1018.24 1018.51 1018.90 1019.14 1019.33
1010.03 1009.68 1009.55 1008.94 1008.47 1008.50 1008.24 1007.61 1007.40 1007.28 1006.87 1007.11 1007.54 1008.44 1009.57 1010.09 1010.14 1010.25 1010.92 1011.63 1012.29 1012.80 1013.14 1013.26 1013.57 1014.02 1014.29 1014.70 1015.00 1015.42 1015.80 1016.15 1016.30 1016.49 1016.68 1017.05 1017.76 1018.04 1018.15 1018.31 1018.42 1018.32 1018.49 1018.76 1018.88 1018.89 1019.07 1019.31 1019.58
1010.00 1009.78 1009.54 1009.10 1008.83 1008.32 1007.79 1007.21 1006.97 1006.72 1006.49 1007.04 1007.72 1008.56 1009.00 1009.62 1009.92 1010.15 1010.39 1011.19 1011.74 1012.08 1012.53 1012.91 1013.20 1013.72 1014.18 1014.75 1015.09 1015.35 1015.63 1015.93 1016.22 1016.41 1016.69 1017.07 1017.41 1017.92 1018.37 1018.77 1018.80 1018.79 1018.89 1019.10 1019.34 1019.46 1019.57 1019.71 1019.96
1010.13 1009.94 1009.36 1008.82 1008.26 1008.10 1007.91 1007.25 1007.20 1006.53 1006.57 1007.31 1007.89 1008.48 1008.79 1009.09 1009.20 1009.86 1010.03 1010.29 1010.89 1011.81 1012.45 1012.79 1013.36 1013.91 1014.35 1014.95 1015.41 1015.79 1015.89 1015.92 1016.21 1016.44 1016.74 1017.06 1017.47 1017.97 1018.37 1018.71 1018.88 1018.96 1018.97 1019.28 1019.60 1019.79 1019.90 1020.08 1020.24
1010.13 1010.05 1009.22 1008.67 1008.31 1007.98 1007.93 1007.60 1007.90 1007.23 1007.30 1007.65 1008.11 1008.87 1009.09 1009.26 1009.38 1009.37 1009.67 1009.80 1010.48 1010.91 1011.59 1012.00 1012.49 1012.85 1013.43 1014.00 1014.59 1015.17 1015.58 1015.92 1016.28 1016.53 1016.58 1016.82 1017.25 1017.59 1018.03 1018.46 1018.88 1019.02 1018.85 1019.06 1019.59 1020.26 1020.36 1020.41 1020.57
1010.60 1010.61 1010.12 1008.88 1008.49 1008.07 1008.01 1008.26 1007.76 1007.37 1007.77 1008.19 1008.55 1009.04 1009.43 1009.58 1009.65 1009.80 1009.80 1009.78 1009.77 1010.64 1011.15 1011.96 1012.32 1012.83 1013.37 1013.99 1014.73 1015.25 1015.65 1015.79 1016.08 1016.34 1016.61 1016.79 1017.10 1017.41 1017.89 1018.40 1018.89 1019.10 1019.19 1019.29 1019.49 1020.29 1020.61 1020.87 1021.31
1011.49 1011.43 1010.95 1009.85 1009.01 1008.95 1008.75 1008.45 1007.52 1007.50 1007.75 1008.05 1008.32 1008.65 1009.00 1009.24 1009.53 1009.30 1009.24 1009.34 1009.77 1010.53 1011.01 1011.80 1012.22 1013.16 1013.70 1013.95 1014.53 1015.07 1015.90 1016.39 1016.36 1016.23 1016.27 1016.75 1016.97 1017.44 1017.87 1018.46 1018.96 1019.16 1019.42 1019.54 1019.68 1020.32 1020.65 1021.45 1021.96
1012.16 1012.03 1011.71 1011.08 1009.72 1009.40 1009.30 1008.93 1007.84 1007.55 1007.87 1007.89 1008.11 1007.95 1008.34 1008.61 1007.99 1008.28 1008.73 1008.98 1009.37 1010.18 1011.04 1011.32 1011.88 1012.66 1013.70 1014.69 1015.20 1015.56 1015.85 1016.52 1016.88 1016.95 1016.77 1016.53 1016.86 1017.34 1017.72 1018.39 1018.91 1019.24 1019.59 1019.85 1019.95 1020.37 1021.02 1021.68 1022.16
1012.26 1012.51 1012.27 1011.35 1010.37 1010.33 1009.56 1009.26 1008.46 1007.36 1007.45 1007.46 1007.58 1008.10 1008.19 1008.17 1007.45 1007.81 1007.98 1008.32 1009.12 1009.75 1010.34 1011.08 1011.65 1012.60 1013.22 1014.23 1015.33 1016.13 1016.24 1016.86 1017.21 1017.21 1017.27 1017.30 1017.14 1017.37 1017.68 1018.11 1018.66 1019.06 1019.49 1019.88 1020.04 1020.63 1021.21 1022.19 1022.55
1012.15 1012.26 1011.72 1011.09 1009.97 1010.24 1009.73 1009.09 1008.45 1007.83 1007.41 1007.17 1007.42 1007.77 1008.10 1008.32 1008.00 1007.59 1007.19 1007.59 1008.05 1008.69 1009.62 1010.68 1011.47 1012.38 1013.44 1013.70 1014.61 1015.60 1016.36 1017.10 1017.37 1017.94 1017.63 1017.73 1017.82 1017.80 1017.76 1018.07 1018.65 1018.95 1019.65 1020.30 1020.57 1020.64 1021.52 1022.04 1022.22
1011.75 1011.94 1011.78 1011.36 1010.65 1010.49 1010.20 1009.08 1008.58 1007.72 1007.59 1007.17 1007.35 1007.88 1008.44 1008.76 1008.48 1007.70 1007.49 1007.67 1008.46 1009.09 1009.54 1010.27 1011.25 1011.87 1012.47 1013.85 1014.57 1015.49 1016.51 1017.47 1017.73 1018.17 1018.10 1017.94 1018.17 1018.13 1018.14 1018.23 1018.38 1019.07 1019.38 1020.09 1020.60 1020.73 1020.97 1022.06 1022.69
1010.90 1010.44 1010.79 1011.20 1011.39 1011.60 1011.16 1009.16 1008.49 1007.99 1008.02 1007.81 1008.27 1008.86 1009.23 1008.91 1008.29 1007.88 1007.75 1007.96 1008.56 1009.10 1009.85 1010.56 1011.25 1012.19 1013.15 1014.01 1015.19 1015.47 1015.94 1016.95 1017.70 1017.90 1018.55 1018.43 1018.18 1018.74 1018.98 1018.46 1018.44 1018.75 1019.56 1019.97 1020.75 1021.14 1021.15 1021.26 1022.36
1009.96 1009.83 1010.45 1010.99 1011.58 1011.88 1011.74 1011.68 1008.83 1008.50 1008.71 1008.83 1009.07 1008.70 1009.20 1010.03 1009.62 1009.30 1009.37 1009.53 1009.99 1010.56 1011.13 1011.73 1012.40 1013.01 1013.32 1013.74 1014.45 1015.31 1016.16 1016.87 1017.59 1017.96 1018.31 1018.94 1018.58 1018.84 1019.52 1019.50 1018.98 1019.25 1019.52 1019.99 1020.72 1021.08 1021.74 1021.53 1021.76
1009.46 1010.05 1010.65 1011.48 1011.97 1011.84 1011.56 1011.61 1008.25 1009.02 1009.55 1009.53 1009.63 1010.39 1010.90 1010.82 1010.31 1010.09 1010.14 1010.27 1010.67 1011.12 1011.93 1012.34 1012.80 1013.66 1014.38 1015.10 1015.19 1015.53 1015.61 1016.46 1017.74 1018.62 1018.48 1019.46 1018.89 1019.45 1019.75 1019.85 1019.48 1019.13 1019.45 1020.12 1020.93 1021.31 1021.66 1021.78 1021.88
1009.64 1010.59 1011.99 1012.33 1012.54 1011.69 1011.30 1011.41 1009.66 1009.39 1009.75 1010.16 1010.53 1010.89 1011.37 1011.55 1011.37 1011.29 1011.14 1011.10 1011.24 1011.60 1012.07 1012.64 1013.22 1013.99 1014.38 1015.01 1015.71 1015.30 1016.20 1015.72 1016.30 1017.41 1017.58 1018.55 1019.00 1020.01 1020.47 1020.16 1019.83 1019.84 1019.69 1020.34 1020.89 1021.31 1021.76 1021.63 1022.33
1009.76 1010.69 1012.15 1012.44 1012.70 1012.27 1011.77 1010.77 1009.57 1009.75 1010.11 1010.32 1010.67 1010.93 1011.29 1011.59 1011.70 1011.48 1011.39 1011.38 1011.46 1011.72 1012.17 1012.54 1012.89 1013.25 1014.14 1014.35 1014.54 1015.25 1015.58 1015.69 1015.91 1016.67 1017.17 1018.28 1018.91 1019.57 1020.37 1020.03 1019.97 1019.74 1019.98 1020.46 1021.02 1021.59 1021.67 1021.89 1022.25
1010.59 1011.08 1011.46 1012.36 1012.84 1012.85 1011.71 1010.74 1010.33 1010.14 1010.25 1010.43 1010.74 1011.04 1011.40 1011.81 1011.95 1011.61 1011.52 1011.29 1011.11 1010.50 1011.34 1011.04 1011.16 1011.96 1012.72 1012.87 1013.00 1013.92 1013.89 1014.97 1015.74 1016.30 1016.51 1017.54 1018.15 1019.15 1019.88 1020.30 1020.47 1019.43 1019.94 1020.60 1020.92 1021.59 1022.16 1022.35 1022.64
1010.77 1011.18 1012.09 1012.93 1013.38 1013.18 1011.94 1010.87 1010.40 1010.39 1010.47 1010.51 1010.73 1010.86 1010.96 1011.11 1011.42 1011.95 1011.87 1011.36 1010.49 1009.94 1009.46 1009.79 1010.18 1010.41 1011.67 1012.20 1012.56 1013.83 1014.40 1014.43 1014.65 1015.98 1016.82 1017.13 1017.86 1018.54 1019.23 1020.44 1019.56 1019.40 1020.10 1020.54 1021.45 1021.96 1022.34 1022.14 1022.86
1011.95 1011.72 1012.20 1012.94 1013.36 1013.27 1012.97 1010.70 1010.18 1010.45 1010.52 1010.70 1010.65 1010.53 1010.42 1010.53 1010.79 1010.69 1011.03 1010.98 1010.96 1010.90 1009.93 1009.74 1009.98 1010.46 1011.18 1012.08 1012.59 1012.64 1013.88 1014.74 1015.82 1015.94 1015.93 1016.32 1017.25 1018.18 1019.09 1019.62 1019.12 1019.95 1019.63 1021.36 1021.52 1021.64 1022.58 1022.16 1022.72
1012.56 1012.82 1012.87 1013.39 1013.54 1013.68 1013.61 1010.33 1010.66 1010.93 1011.08 1010.98 1010.64 1010.47 1010.01 1009.62 1009.52 1009.44 1009.52 1009.41 1009.54 1009.39 1009.81 1009.95 1009.65 1009.96 1010.34 1010.85 1011.70 1012.48 1013.52 1014.63 1014.83 1015.56 1016.63 1016.80 1017.17 1016.85 1018.04 1018.82 1018.64 1020.44 1020.31 1021.40 1021.68 1022.72 1021.70 1022.33 1023.01
Thickness
5753 5749 5747 5738 5706 5690 5687 5705 5723 5731 5742 5749 5749 5744 5742 5738 5741 5727 5748 5749 5751 5746 5743 5739 5735 5731 5727 5726 5723 5721 5720 5717 5715 5712 5710 5706 5703 5700 5696 5692 5690 5689 5686 5684 5682 5682 5682 5681 5681
5751 5746 5738 5718 5687 5675 5682 5712 5720 5733 5753 5750 5749 5743 5735 5727 5736 5736 5737 5740 5741 5739 5736 5732 5730 5726 5721 5720 5719 5715 5714 5712 5710 5706 5705 5701 5698 5694 5690 5687 5685 5685 5681 5678 5676 5675 5676 5677 5676
5751 5746 5722 5694 5671 5676 5686 5717 5729 5744 5755 5750 5743 5742 5735 5726 5736 5734 5736 5736 5734 5730 5727 5724 5723 5722 5717 5714 5714 5711 5710 5709 5706 5703 5700 5696 5693 5690 5685 5682 5680 5681 5678 5675 5672 5670 5670 5670 5671
5744 5732 5712 5691 5687 5698 5707 5726 5734 5735 5751 5752 5742 5730 5731 5732 5733 5739 5734 5732 5726 5722 5719 5717 5717 5716 5714 5711 5708 5706 5704 5703 5702 5699 5694 5691 5688 5685 5681 5679 5676 5676 5674 5671 5669 5666 5666 5666 5666
5735 5719 5688 5684 5688 5706 5715 5729 5731 5736 5743 5741 5744 5730 5725 5731 5733 5733 5727 5727 5724 5720 5715 5712 5710 5709 5707 5707 5704 5702 5699 5698 5696 5692 5689 5686 5682 5679 5677 5675 5673 5671 5669 5667 5665 5663 5661 5662 5661
5716 5707 5680 5677 5690 5711 5720 5733 5738 5740 5740 5734 5732 5725 5725 5730 5727 5728 5724 5721 5720 5717 5717 5713 5708 5704 5702 5700 5698 5697 5694 5691 5689 5684 5682 5681 5678 5675 5673 5670 5668 5668 5663 5663 5661 5659 5657 5655 5656
5713 5697 5684 5689 5696 5709 5727 5740 5743 5738 5733 5733 5736 5718 5722 5723 5724 5720 5717 5714 5713 5712 5711 5709 5710 5706 5701 5696 5694 5690 5687 5684 5682 5681 5677 5675 5673 5669 5667 5666 5663 5662 5658 5656 5656 5655 5652 5650 5650
5714 5702 5688 5689 5693 5703 5731 5736 5744 5739 5728 5735 5733 5720 5717 5723 5719 5712 5711 5707 5704 5701 5699 5698 5699 5696 5694 5693 5690 5686 5681 5677 5674 5674 5670 5668 5667 5665 5660 5658 5657 5657 5653 5651 5650 5648 5647 5645 5644
5720 5692 5679 5695 5694 5710 5730 5725 5737 5739 5730 5729 5725 5721 5725 5725 5716 5708 5705 5699 5696 5694 5693 5691 5691 5691 5687 5682 5680 5678 5676 5671 5667 5664 5660 5660 5658 5656 5655 5652 5650 5650 5647 5644 5643 5641 5639 5638 5637
5706 5682 5691 5707 5708 5713 5717 5722 5727 5728 5724 5724 5719 5718 5721 5719 5711 5706 5704 5699 5696 5691 5686 5685 5685 5681 5677 5677 5671 5669 5667 5664 5661 5655 5652 5650 5650 5647 5646 5646 5644 5643 5641 5638 5635 5633 5631 5630 5629
5708 5694 5708 5716 5717 5717 5714 5716 5727 5720 5716 5726 5724 5716 5715 5712 5709 5705 5701 5698 5695 5689 5684 5680 5677 5674 5671 5666 5663 5661 5659 5657 5652 5649 5646 5642 5638 5638 5637 5636 5635 5634 5632 5630 5629 5627 5624 5621 5619
5703 5709 5711 5715 5720 5712 5712 5723 5720 5719 5728 5732 5731 5721 5712 5706 5707 5705 5699 5694 5689 5684 5680 5678 5675 5671 5667 5662 5659 5655 5651 5648 5646 5644 5641 5638 5632 5629 5628 5626 5624 5625 5622 5620 5618 5617 5615 5613 5610
5700 5706 5708 5709 5707 5707 5716 5720 5722 5727 5733 5727 5721 5717 5713 5709 5705 5704 5702 5693 5689 5685 5679 5675 5673 5668 5663 5657 5653 5650 5646 5643 5640 5638 5635 5632 5628 5623 5618 5614 5614 5613 5612 5610 5607 5605 5604 5602 5599
5700 5700 5702 5708 5710 5710 5709 5717 5715 5727 5725 5721 5719 5712 5712 5710 5706 5701 5699 5696 5691 5681 5674 5671 5665 5660 5655 5649 5644 5640 5638 5637 5633 5631 5627 5623 5620 5615 5611 5607 5605 5604 5603 5600 5597 5594 5593 5591 5589
5698 5690 5698 5708 5709 5709 5707 5708 5703 5713 5716 5715 5713 5706 5704 5703 5700 5699 5697 5695 5687 5681 5675 5673 5669 5665 5658 5651 5645 5639 5634 5630 5626 5622 5621 5618 5613 5609 5605 5601 5597 5595 5596 5593 5587 5581 5580 5579 5576
5683 5682 5674 5699 5701 5707 5704 5682 5706 5708 5708 5706 5704 5700 5695 5691 5691 5690 5689 5687 5689 5681 5676 5667 5662 5655 5648 5641 5633 5628 5625 5623 5620 5616 5612 5609 5604 5600 5596 5591 5588 5586 5584 5583 5580 5573 5569 5567 5562
5664 5660 5669 5679 5694 5688 5691 5682 5703 5704 5702 5698 5700 5695 5692 5688 5684 5686 5685 5685 5681 5676 5671 5661 5655 5643 5635 5630 5625 5621 5613 5608 5608 5608 5606 5600 5597 5592 5588 5582 5578 5576 5574 5572 5570 5564 5561 5553 5547
5653 5654 5656 5657 5678 5675 5670 5670 5688 5693 5692 5690 5691 5693 5687 5685 5691 5686 5681 5679 5676 5667 5659 5657 5648 5639 5626 5614 5610 5606 5602 5596 5591 5589 5590 5592 5588 5583 5580 5575 5570 5567 5563 5560 5558 5554 5548 5541 5537
5655 5646 5640 5651 5666 5660 5663 5660 5672 5686 5685 5684 5685 5680 5678 5676 5686 5682 5678 5674 5666 5659 5653 5648 5641 5630 5620 5607 5597 5591 5589 5582 5577 5575 5574 5573 5574 5572 5570 5566 5562 5558 5553 5549 5547 5541 5536 5527 5522
5647 5640 5642 5650 5663 5658 5655 5655 5664 5676 5678 5681 5679 5674 5669 5667 5671 5675 5678 5671 5666 5659 5650 5639 5632 5621 5609 5602 5591 5584 5576 5569 5567 5560 5561 5558 5557 5557 5558 5556 5551 5548 5542 5536 5532 5531 5523 5518 5515
5638 5632 5633 5636 5648 5645 5642 5650 5654 5670 5669 5674 5673 5667 5661 5658 5659 5664 5667 5664 5654 5647 5641 5633 5622 5614 5606 5592 5580 5571 5562 5553 5551 5546 5545 5543 5541 5542 5542 5544 5542 5536 5534 5527 5520 5517 5516 5506 5500
5634 5647 5640 5636 5628 5611 5627 5630 5652 5657 5656 5660 5654 5649 5644 5646 5653 5656 5657 5652 5645 5637 5626 5619 5608 5597 5586 5576 5564 5560 5554 5544 5534 5532 5528 5529 5531 5526 5526 5531 5531 5529 5522 5519 5511 5505 5504 5502 5493
5638 5649 5639 5633 5618 5608 5610 5598 5637 5640 5635 5636 5632 5638 5633 5625 5628 5630 5628 5623 5615 5607 5600 5594 5585 5577 5573 5566 5557 5544 5533 5525 5519 5515 5513 5512 5517 5515 5510 5510 5515 5514 5514 5511 5504 5498 5489 5488 5485
5643 5632 5620 5602 5600 5592 5607 5593 5627 5620 5619 5617 5619 5612 5605 5605 5607 5609 5607 5604 5597 5591 5581 5574 5567 5559 5549 5540 5531 5512 5515 5508 5497 5489 5494 5493 5502 5502 5499 5497 5499 5504 5503 5497 5490 5485 5481 5475 5472
5620 5603 5578 5579 5576 5591 5599 5582 5608 5613 5607 5603 5600 5598 5589 5585 5583 5582 5582 5580 5576 5570 5563 5557 5551 5541 5534 5526 5508 5509 5498 5504 5505 5494 5493 5489 5486 5481 5481 5483 5485 5485 5488 5483 5479 5475 5468 5466 5458
5606 5595 5573 5567 5566 5575 5583 5576 5594 5594 5589 5588 5588 5585 5578 5573 5568 5565 5562 5560 5559 5553 5546 5541 5536 5532 5515 5513 5506 5495 5490 5489 5492 5487 5485 5477 5474 5473 5471 5474 5472 5473 5472 5469 5466 5461 5458 5453 5449
5589 5578 5583 5565 5561 5551 5565 5578 5581 5579 5575 5575 5572 5568 5562 5552 5546 5545 5544 5543 5544 5547 5538 5538 5538 5530 5519 5509 5504 5496 5494 5486 5483 5482 5482 5472 5469 5464 5464 5459 5457 5463 5462 5459 5457 5450 5443 5440 5437
5580 5576 5557 5544 5541 5540 5555 5562 5556 5561 5559 5556 5551 5550 5549 5545 5537 5528 5525 5527 5533 5540 5544 5538 5532 5523 5506 5495 5492 5477 5477 5481 5482 5471 5464 5463 5461 5457 5455 5449 5452 5453 5450 5451 5443 5438 5435 5436 5428
5556 5554 5552 5543 5530 5531 5533 5558 5554 5549 5545 5537 5533 5534 5534 5531 5524 5525 5518 5515 5515 5514 5521 5523 5518 5509 5499 5489 5482 5484 5473 5467 5459 5460 5463 5462 5457 5451 5444 5444 5443 5440 5445 5434 5433 5432 5425 5429 5421
5548 5542 5537 5517 5526 5505 5496 5546 5544 5533 5522 5515 5511 5512 5512 5524 5522 5525 5517 5516 5512 5514 5509 5507 5507 5502 5493 5487 5480 5474 5465 5454 5456 5450 5445 5449 5449 5455 5445 5439 5440 5428 5430 5423 5420 5412 5426 5419 5411